Regional Weather Roundup
Issued by NWS

Home | Current Version | Previous Version | Graphics & Text | Print | Product List | Glossary On
Versions: 1 2 3 4 5 6 7 8 9 10 11 12 13 14 15 16 17 18 19 20 21 22 23 24 25 26 27 28 29 30 31 32 33 34 35 36 37 38 39 40 41 42 43 44 45 46 47 48 49 50
000
ASUS44 KMEG 280810
RWRTN
TENNESSEE HOURLY STATE WEATHER ROUNDUP
NATIONAL WEATHER SERVICE MEMPHIS TN
300 AM CDT SUN AUG 28 2016

TNZ002-004-019-021-049-052-054-088>092-280900-
WEST TENNESSEE

CITY           SKY/WX    TMP DP  RH WIND       PRES   REMARKS
MEMPHIS INTL   CLEAR     79  71  76 E6        30.05S
NWS MEMPHIS      N/A     75 N/A N/A MISG        N/A
JACKSON        CLEAR     72  72 100 CALM      30.08R FOG
DYERSBURG      CLEAR     73  72  94 MISG      30.08S
UNION CITY     CLEAR     72  72 100 CALM      30.07S
PARIS          CLEAR     70  70 100 CALM      30.10S
$$

TNZ008-025-027-028-033-062-065-066-280900-
NORTH MIDDLE TENNESSEE

CITY           SKY/WX    TMP DP  RH WIND       PRES   REMARKS
NASHVILLE      CLEAR     72  70  93 CALM      30.11S
CLARKSVILLE    CLEAR     73  70  90 CALM      30.10R
COOKEVILLE     CLEAR     70  68  94 CALM      30.12F
CROSSVILLE     CLEAR     69  67  93 CALM      30.19S
$$

TNZ061-075-076-078-094-096-097-280900-
SOUTH MIDDLE TENNESSEE

CITY           SKY/WX    TMP DP  RH WIND       PRES   REMARKS
FAYETTEVILLE   CLOUDY    73  72  94 CALM      30.10S
TULLAHOMA      CLEAR     70  68  94 CALM      30.12F
WINCHESTER     CLEAR     72  70  94 CALM      30.11S
MCMINNVILLE    CLEAR     72  72 100 CALM      30.13R
COLUMBIA       CLEAR    N/A N/A N/A CALM      30.09R
SHELBYVILLE    CLEAR     72  72 100 CALM      30.11S
$$

TNZ017-018-042-046-047-280900-
NORTHEAST TENNESSEE

CITY           SKY/WX    TMP DP  RH WIND       PRES   REMARKS
TRI CITIES     CLOUDY    74  70  87 CALM      30.17F
ELIZABETHTON     N/A     75  70  83 E5        30.17F
$$

TNZ012-013-036-069-073-074-280900-
CENTRAL EAST TENNESSEE

CITY           SKY/WX    TMP DP  RH WIND       PRES   REMARKS
KNOXVILLE      PTCLDY    72  70  93 W5        30.12S
OAK RIDGE      PTCLDY    73  69  87 CALM      30.15S
GATLINBURG     CLEAR     70  68  94 CALM      30.13R
MORRISTOWN     CLEAR     73  66  78 NE6       30.15R
$$

TNZ083-085-099-280900-
SOUTHEAST TENNESSEE

CITY           SKY/WX    TMP DP  RH WIND       PRES   REMARKS
CHATTANOOGA    CLEAR     75  70  84 NE5       30.12S
$$

SKY/WX REPORTED AS FAIR MEANS FEW OR NO CLOUDS BELOW
12 THOUSAND FEET.




USA.gov is the U.S. government's official web portal to all federal, state and local government web resources and services.